FW3667 Weather Reports


time (UTC)temp
C
wind
direction
speed
KPH
gust
KPH
rain 1hr
cm
rain 24hr
cm
rain mn
cm
humidity
%
barometer
mb
20260505083051 14 206 0.0 0.0 0.00 0.00 0.00 85 1000.8
20260505081603 14 206 0.0 0.0 0.00 0.00 0.00 85 1000.7
20260505080149 15 206 0.0 0.0 0.00 0.00 0.00 84 1000.9
20260505074526 15 207 0.0 1.6 0.00 0.00 0.00 83 1001.0
20260505073035 15 206 0.0 1.6 0.00 0.00 0.00 82 1001.0
20260505071556 15 207 0.0 1.6 0.00 0.00 0.00 82 1001.0
20260505070058 15 208 0.0 4.8 0.00 0.00 0.00 81 1001.0
20260505064551 15 239 0.0 3.2 0.00 0.00 0.00 80 1001.0
20260505063055 15 217 0.0 3.2 0.00 0.00 0.00 80 1001.2
20260505061550 15 202 0.0 4.8 0.00 0.00 0.00 82 1001.3
20260505060050 15 205 0.0 3.2 0.00 0.00 0.00 83 1001.8
20260505054520 15 275 0.0 1.6 0.00 0.00 0.00 84 1002.1
20260505053033 14 276 0.0 3.2 0.00 0.00 0.00 83 1002.1
20260505051534 14 166 0.0 1.6 0.00 0.00 0.00 84 1002.3
20260505041520 15 93 0.0 0.0 0.00 0.00 0.00 80 1002.8
20260505040013 16 94 0.0 1.6 0.00 0.00 0.00 78 1002.9
20260505034512 16 94 0.0 1.6 0.00 0.00 0.00 76 1002.9
20260505033011 16 93 0.0 1.6 0.00 0.00 0.00 75 1003.2
20260505031510 17 161 0.0 6.4 0.00 0.00 0.00 74 1003.0
20260505030008 17 116 0.0 3.2 0.00 0.00 0.00 73 1002.9
20260505024508 17 115 0.0 3.2 0.00 0.00 0.00 72 1002.7
20260505023012 17 139 0.0 4.8 0.00 0.00 0.00 71 1002.5
20260505021505 17 51 0.0 1.6 0.00 0.00 0.00 70 1002.3
20260505020004 18 51 0.0 1.6 0.00 0.00 0.00 69 1001.9
20260505014504 18 51 0.0 3.2 0.00 0.00 0.00 67 1001.5
20260505013003 19 134 0.0 1.6 0.00 0.00 0.00 65 1001.5
20260505011500 20 134 0.0 8.0 0.00 0.00 0.00 62 1001.4
20260505010118 21 256 0.0 4.8 0.00 0.00 0.00 60 1001.4
20260505004600 21 238 3.2 11.3 0.00 0.00 0.00 57 1001.0
20260505003100 22 152 3.2 8.0 0.00 0.00 0.00 56 1001.1
20260505001529 22 341 0.0 8.0 0.00 0.00 0.00 55 1001.1
20260505000040 23 225 1.6 9.7 0.00 0.00 0.00 54 1000.6
20260504234557 23 198 1.6 9.7 0.00 0.00 0.00 53 1000.7
20260504233057 23 221 1.6 12.9 0.00 0.00 0.00 52 1000.9
20260504231558 24 196 3.2 9.7 0.00 0.00 0.00 50 1001.1
20260504230053 24 202 1.6 16.1 0.00 0.00 0.00 50 1001.1
20260504224552 25 202 3.2 8.0 0.00 0.00 0.00 48 1001.2
20260504223100 26 222 1.6 12.9 0.00 0.00 0.00 46 1001.2
20260504221603 26 207 3.2 9.7 0.00 0.00 0.00 47 1001.2
20260504220047 26 75 1.6 14.5 0.00 0.00 0.00 47 1001.4
20260504214549 26 89 1.6 14.5 0.00 0.00 0.00 46 1001.4
20260504213059 26 202 3.2 9.7 0.00 0.00 0.00 47 1001.5
20260504211548 26 91 1.6 9.7 0.00 0.00 0.00 45 1001.5
20260504210040 26 9 3.2 11.3 0.00 0.00 0.00 47 1001.7
20260504204640 26 110 3.2 12.9 0.00 0.00 0.00 46 1001.9
20260504203047 27 237 4.8 11.3 0.00 0.00 0.00 46 1002.1
20260504201534 27 207 3.2 8.0 0.00 0.00 0.00 45 1002.3
20260504200031 26 32 1.6 9.7 0.00 0.00 0.00 45 1002.5
20260504194538 26 114 3.2 17.7 0.00 0.00 0.00 47 1002.6
20260504193027 26 204 3.2 14.5 0.00 0.00 0.00 46 1002.8
20260504191535 26 116 3.2 11.3 0.00 0.00 0.00 45 1003.0
20260504190020 26 267 3.2 11.3 0.00 0.00 0.00 44 1003.2
20260504184520 26 206 3.2 17.7 0.00 0.00 0.00 46 1003.2
20260504183017 26 232 3.2 12.9 0.00 0.00 0.00 45 1003.3
20260504181518 26 204 1.6 17.7 0.00 0.00 0.00 44 1003.3
20260504180016 25 136 3.2 11.3 0.00 0.00 0.00 47 1003.4
20260504174510 25 149 6.4 17.7 0.00 0.00 0.00 46 1003.5
20260504173010 25 57 1.6 12.9 0.00 0.00 0.00 52 1003.7
20260504171505 25 335 3.2 17.7 0.00 0.00 0.00 48 1004.0